Weather History for La Paz, B. C. S., Mexico

Change the Weather History Date:

Tuesday, October 9, 2012

  Actual Average Record
Temperature  
Mean Temperature 86 °F -  
Max Temperature 98 °F 88 °F - ()
Min Temperature 73 °F 65 °F - ()
Cooling Degree Days 20    
Growing Degree Days 36 (Base 50)    
Moisture  
Dew Point 62 °F    
Average Humidity 55    
Maximum Humidity 88    
Minimum Humidity 17    
Precipitation  
Precipitation 0.00 in - - ()
Sea Level Pressure  
Sea Level Pressure 29.95 in    
Wind  
Wind Speed 6 mph ()    
Max Wind Speed 12 mph    
Max Gust Speed -    
Visibility 9.8 miles    
Events      
T = Trace of Precipitation, MM = Missing Value Source: Averaged Metar Reports

Daily Weather History Graph

Daily Weather History Graph

Search for Another Location

Airport:

Trip Planner

Search our weather history database for the weather conditions in past years. The results will help you decide how hot, cold, wet, or windy it might be!

Date:

Astronomy

Oct. 09, 2012 Rise Set
Actual Time 7:16 AM MDT 6:59 PM MDT
Civil Twilight 6:53 AM MDT 7:22 PM MDT
Nautical Twilight 6:27 AM MDT 7:48 PM MDT
Astronomical Twilight 6:01 AM MDT 8:15 PM MDT
Moon 1:33 AM MDT (10/9) 2:55 PM MDT (10/9)
Length of Visible Light 12h 28m
Length of Day
11h 43m
Last Quarter, 36% of the Moon is Illuminated
Oct 9
Last Quarter
Oct 15
New
Oct 21
First Quarter
Oct 29
Full
Nov 6
Last Quarter

Hourly Weather History & Observations

Time (MDT) Temp. Heat Index Dew Point Humidity Pressure Visibility Wind Dir Wind Speed Gust Speed Precip Events Conditions
2:45 AM 75 °F - 69 °F 77% 29.91 in 2 mi South 4.5 mph - -  
5:50 AM 73 °F - 66 °F 73% 29.94 in 2 mi South 4.5 mph - -  
6:10 AM 68.0 °F - 64.4 °F 88% 30.00 in 10.0 mi South 8.1 mph - N/A   Clear
6:44 AM 68.0 °F - 64.4 °F 88% 29.95 in 10.0 mi South 9.2 mph - N/A   Clear
7:41 AM 68.0 °F - 64.4 °F 88% 29.96 in 10.0 mi South 9.2 mph - N/A   Clear
8:50 AM 78 °F - 65 °F 57% 29.98 in 12 mi South 4.5 mph - -  
8:52 AM 73.4 °F - 66.2 °F 78% 30.04 in 10.0 mi South 8.1 mph - N/A   Clear
9:41 AM 77.0 °F - 62.6 °F 61% 29.99 in 10.0 mi South 9.2 mph - N/A   Clear
10:42 AM 80.6 °F 81.5 °F 60.8 °F 51% 29.98 in 10.0 mi SSW 6.9 mph - N/A   Clear
11:41 AM 82.4 °F 82.9 °F 60.8 °F 48% 30.02 in 10.0 mi SSW 4.6 mph - N/A   Clear
11:50 AM 87 °F - 64 °F 36% 29.96 in 19 mi South 6.7 mph - -  
12:41 PM 87.8 °F 87.1 °F 59.0 °F 38% 29.94 in 12.0 mi SE 3.5 mph - N/A   Clear
1:44 PM 91.4 °F - 51.8 °F 26% 29.91 in 12.0 mi WSW 10.4 mph - N/A   Clear
2:40 PM 93.2 °F - 51.8 °F 24% 29.95 in 12.0 mi WSW 4.6 mph - N/A   Clear
2:50 PM 96 °F - 56 °F 17% 29.89 in 19 mi SSW 6.7 mph - -  
3:41 PM 93.2 °F - 50.0 °F 23% 29.88 in 12.0 mi WSW 6.9 mph - N/A   Scattered Clouds
4:51 PM 89.6 °F - 51.8 °F 27% 29.87 in 10.0 mi WSW 11.5 mph - N/A   Mostly Cloudy
5:50 PM 93 °F - 61 °F 25% 29.87 in 2 mi WSW 6.7 mph - -   Scattered Clouds
5:51 PM 89.6 °F 89.5 °F 60.8 °F 38% 29.98 in 10.0 mi SW 9.2 mph - N/A   Mostly Cloudy
6:58 PM 82.4 °F 84.6 °F 66.2 °F 58% 29.89 in 10.0 mi SSW 9.2 mph - N/A   Scattered Clouds
7:50 PM 80.6 °F 82.7 °F 66.2 °F 61% 29.90 in 10.0 mi South 6.9 mph - N/A   Scattered Clouds
8:41 PM 77.0 °F - 66.2 °F 69% 30.01 in 10.0 mi South 5.8 mph - N/A   Scattered Clouds
8:50 PM 81 °F - 69 °F 60% 29.92 in 2 mi South 6.7 mph - -  
10:07 PM 75.2 °F - 68.0 °F 78% 29.95 in 10.0 mi SSE 6.9 mph - N/A   Scattered Clouds
10:40 PM 73.4 °F - 68.0 °F 83% 29.96 in 10.0 mi SSE 6.9 mph - N/A   Scattered Clouds